TimeCDT,TemperatureF,Dew PointF,Humidity,Sea Level PressureIn,VisibilityMPH,Wind Direction,Wind SpeedMPH,Gust SpeedMPH,PrecipitationIn,Events,Conditions,WindDirDegrees,DateUTC
12:15 AM,61.7,59.0,91,30.01,10.0,Calm,Calm,-,N/A,,Mostly Cloudy,0,2013-10-02 05:15:00
12:35 AM,61.7,58.5,89,30.01,10.0,Calm,Calm,-,N/A,,Overcast,0,2013-10-02 05:35:00
12:55 AM,61.7,59.0,91,30.01,10.0,Calm,Calm,-,N/A,,Overcast,0,2013-10-02 05:55:00
1:15 AM,61.7,59.0,91,30.02,10.0,Calm,Calm,-,N/A,,Overcast,0,2013-10-02 06:15:00
1:35 AM,61.7,59.0,91,30.03,10.0,Calm,Calm,-,N/A,,Overcast,0,2013-10-02 06:35:00
1:55 AM,61.5,59.0,91,30.04,10.0,Calm,Calm,-,N/A,,Scattered Clouds,0,2013-10-02 06:55:00
2:15 AM,57.6,55.6,93,30.04,10.0,Calm,Calm,-,N/A,,Clear,0,2013-10-02 07:15:00
2:35 AM,57.6,55.6,93,30.04,7.0,Calm,Calm,-,N/A,,Clear,0,2013-10-02 07:35:00
2:55 AM,54.9,52.9,93,30.04,10.0,Calm,Calm,-,N/A,,Clear,0,2013-10-02 07:55:00
3:15 AM,54.0,52.2,94,30.04,0.2,Calm,Calm,-,N/A,Fog,Fog,0,2013-10-02 08:15:00
3:35 AM,54.1,52.2,93,30.05,0.2,Calm,Calm,-,N/A,Fog,Fog,0,2013-10-02 08:35:00
3:55 AM,52.7,51.1,94,30.06,7.0,Calm,Calm,-,N/A,,Scattered Clouds,0,2013-10-02 08:55:00
4:15 AM,52.2,50.2,93,30.07,10.0,Calm,Calm,-,N/A,,Clear,0,2013-10-02 09:15:00
4:35 AM,52.5,50.7,94,30.07,10.0,Calm,Calm,-,N/A,,Clear,0,2013-10-02 09:35:00
4:55 AM,54.0,52.2,94,30.07,4.0,Calm,Calm,-,N/A,,Clear,0,2013-10-02 09:55:00
5:15 AM,51.4,50.0,95,30.08,0.2,Calm,Calm,-,N/A,Fog,Fog,0,2013-10-02 10:15:00
5:35 AM,50.4,48.7,94,30.08,0.2,Calm,Calm,-,N/A,Fog,Fog,0,2013-10-02 10:35:00
5:55 AM,49.1,47.3,93,30.09,0.2,Calm,Calm,-,N/A,Fog,Fog,0,2013-10-02 10:55:00
6:15 AM,48.9,47.3,94,30.10,0.2,Calm,Calm,-,N/A,Fog,Fog,0,2013-10-02 11:15:00
6:35 AM,49.1,47.5,94,30.10,0.2,Calm,Calm,-,N/A,Fog,Fog,0,2013-10-02 11:35:00
6:55 AM,47.1,45.7,95,30.10,0.2,Calm,Calm,-,N/A,Fog,Fog,0,2013-10-02 11:55:00
7:15 AM,46.8,45.3,95,30.11,0.2,Calm,Calm,-,N/A,Fog,Fog,0,2013-10-02 12:15:00
7:35 AM,47.5,46.0,95,30.11,0.2,Calm,Calm,-,N/A,Fog,Fog,0,2013-10-02 12:35:00
7:55 AM,50.4,48.7,94,30.11,0.2,Calm,Calm,-,N/A,Fog,Fog,0,2013-10-02 12:55:00
8:15 AM,54.0,52.7,95,30.11,7.0,Calm,Calm,-,N/A,,Clear,0,2013-10-02 13:15:00
8:35 AM,54.1,52.7,95,30.12,10.0,Calm,Calm,-,N/A,,Clear,0,2013-10-02 13:35:00
8:55 AM,56.5,55.0,95,30.12,10.0,Calm,Calm,-,N/A,,Clear,0,2013-10-02 13:55:00
9:15 AM,59.0,57.2,94,30.13,10.0,ENE,3.5,-,N/A,,Clear,60,2013-10-02 14:15:00
9:35 AM,64.0,57.0,78,30.13,10.0,ENE,5.8,-,N/A,,Clear,70,2013-10-02 14:35:00
9:55 AM,66.6,49.6,54,30.13,10.0,ENE,10.4,-,N/A,,Clear,70,2013-10-02 14:55:00
10:15 AM,69.3,48.6,48,30.13,10.0,East,11.5,-,N/A,,Clear,80,2013-10-02 15:15:00
10:35 AM,72.0,43.2,35,30.13,10.0,East,13.8,-,N/A,,Clear,80,2013-10-02 15:35:00
10:55 AM,74.3,41.2,30,30.12,10.0,East,12.7,16.1,N/A,,Clear,80,2013-10-02 15:55:00
11:15 AM,74.3,40.1,29,30.12,10.0,East,10.4,-,N/A,,Clear,80,2013-10-02 16:15:00
11:35 AM,74.3,38.8,28,30.12,10.0,East,10.4,-,N/A,,Clear,90,2013-10-02 16:35:00
11:55 AM,75.6,34.2,22,30.11,10.0,East,11.5,-,N/A,,Clear,80,2013-10-02 16:55:00
12:15 PM,77.0,36.7,23,30.11,10.0,ESE,8.1,-,N/A,,Clear,110,2013-10-02 17:15:00
12:35 PM,78.3,37.4,23,30.10,10.0,ESE,6.9,-,N/A,,Clear,120,2013-10-02 17:35:00
12:55 PM,79.3,38.3,23,30.10,10.0,ESE,9.2,-,N/A,,Clear,120,2013-10-02 17:55:00
1:15 PM,79.3,39.7,24,30.09,10.0,ESE,11.5,-,N/A,,Clear,120,2013-10-02 18:15:00
1:35 PM,79.3,38.5,23,30.07,10.0,East,5.8,-,N/A,,Clear,100,2013-10-02 18:35:00
1:55 PM,79.3,39.6,24,30.06,10.0,ESE,8.1,-,N/A,,Clear,120,2013-10-02 18:55:00
2:15 PM,79.5,40.3,25,30.05,10.0,ESE,8.1,-,N/A,,Clear,120,2013-10-02 19:15:00
2:35 PM,79.7,40.5,25,30.05,10.0,East,9.2,-,N/A,,Clear,80,2013-10-02 19:35:00
2:55 PM,80.4,42.6,26,30.04,10.0,ESE,6.9,-,N/A,,Clear,120,2013-10-02 19:55:00
3:15 PM,80.2,44.1,28,30.04,10.0,ESE,6.9,-,N/A,,Clear,110,2013-10-02 20:15:00
3:35 PM,80.1,44.8,29,30.04,10.0,SE,4.6,-,N/A,,Scattered Clouds,140,2013-10-02 20:35:00
3:55 PM,79.3,45.1,30,30.03,10.0,ESE,8.1,-,N/A,,Mostly Cloudy,110,2013-10-02 20:55:00
4:15 PM,79.5,46.0,31,30.02,10.0,SSE,9.2,-,N/A,,Mostly Cloudy,150,2013-10-02 21:15:00
4:35 PM,80.4,47.5,31,30.01,10.0,SSE,9.2,-,N/A,,Mostly Cloudy,150,2013-10-02 21:35:00
4:55 PM,80.4,48.4,32,30.01,10.0,SE,8.1,-,N/A,,Mostly Cloudy,140,2013-10-02 21:55:00
5:15 PM,79.3,49.1,35,30.01,10.0,SE,9.2,-,N/A,,Mostly Cloudy,130,2013-10-02 22:15:00
5:35 PM,79.3,51.8,38,30.00,10.0,SE,8.1,-,N/A,,Clear,130,2013-10-02 22:35:00
5:55 PM,77.9,52.9,42,30.00,10.0,ESE,4.6,-,N/A,,Clear,110,2013-10-02 22:55:00
6:15 PM,74.3,53.1,47,30.00,10.0,East,4.6,-,N/A,,Clear,100,2013-10-02 23:15:00
6:35 PM,74.3,54.9,51,30.00,10.0,East,4.6,-,N/A,,Clear,100,2013-10-02 23:35:00
6:55 PM,70.2,54.3,57,30.01,10.0,East,4.6,-,N/A,,Clear,100,2013-10-02 23:55:00
7:15 PM,67.1,54.5,64,30.01,10.0,ESE,5.8,-,N/A,,Clear,110,2013-10-03 00:15:00
7:35 PM,64.9,54.9,70,30.00,10.0,ESE,6.9,-,N/A,,Clear,110,2013-10-03 00:35:00
7:55 PM,64.0,54.5,71,30.00,10.0,ESE,5.8,-,N/A,,Clear,120,2013-10-03 00:55:00
8:15 PM,64.0,55.2,73,30.01,10.0,ESE,6.9,-,N/A,,Scattered Clouds,120,2013-10-03 01:15:00
8:35 PM,65.8,52.9,63,30.01,10.0,ESE,6.9,-,N/A,,Scattered Clouds,110,2013-10-03 01:35:00
8:55 PM,65.7,51.8,61,30.01,10.0,ESE,8.1,-,N/A,,Clear,110,2013-10-03 01:55:00
9:15 PM,64.0,51.8,64,30.00,10.0,East,8.1,-,N/A,,Clear,100,2013-10-03 02:15:00
9:35 PM,63.9,52.5,67,30.01,10.0,East,5.8,-,N/A,,Clear,100,2013-10-03 02:35:00
9:55 PM,61.7,51.8,70,30.01,10.0,East,5.8,-,N/A,,Clear,100,2013-10-03 02:55:00
10:15 PM,61.7,51.8,70,30.01,10.0,ESE,5.8,-,N/A,,Clear,110,2013-10-03 03:15:00
10:35 PM,61.0,52.0,72,30.01,10.0,ESE,4.6,-,N/A,,Clear,110,2013-10-03 03:35:00
10:55 PM,59.0,50.9,74,30.01,10.0,ESE,4.6,-,N/A,,Clear,120,2013-10-03 03:55:00
11:15 PM,59.0,51.3,75,30.00,10.0,ESE,6.9,-,N/A,,Clear,110,2013-10-03 04:15:00
11:35 PM,59.0,50.9,74,30.00,10.0,ESE,5.8,-,N/A,,Clear,120,2013-10-03 04:35:00
11:55 PM,59.0,51.1,75,29.99,10.0,ESE,5.8,-,N/A,,Clear,120,2013-10-03 04:55:00